Weather History for Volk, WI

Change the Weather History Date:

Thursday, January 10, 2013

  Actual Average Record
Temperature  
Mean Temperature 24 °F -  
Max Temperature 37 °F 22 °F - (-1)
Min Temperature 12 °F 11 °F - (-1)
Degree Days  
Heating Degree Days 40    
Moisture  
Dew Point 26 °F    
Average Humidity 85    
Maximum Humidity 100    
Minimum Humidity 56    
Precipitation  
Precipitation 0.07 in - - ()
Snow  
Snow 0.00 in - - ()
Snow Depth 5.00 in    
Sea Level Pressure  
Sea Level Pressure 30.18 in    
Wind  
Wind Speed 7 mph (ESE)    
Max Wind Speed 15 mph    
Max Gust Speed -    
Visibility 8 miles    
Events Rain    
Averages and records for this station are not official NWS values.
T = Trace of Precipitation, MM = Missing Value Source: NWS Daily Summary

Daily Weather History Graph

Daily Weather History Graph

Search for Another Location

Airport:

Trip Planner

Search our weather history database for the weather conditions in past years. The results will help you decide how hot, cold, wet, or windy it might be!

Date:

Astronomy

Jan. 10, 2013 Rise Set
Actual Time 7:34 AM CST 4:43 PM CST
Civil Twilight 7:01 AM CST 5:15 PM CST
Nautical Twilight 6:26 AM CST 5:51 PM CST
Astronomical Twilight 5:51 AM CST 6:26 PM CST
Moon 6:14 AM CST (1/10) 3:51 PM CST (1/10)
Length of Visible Light 10h 13m
Length of Day
9h 09m
Waning Crescent, 2% of the Moon is Illuminated
Jan 10
Waning Crescent
Jan 11
New
Jan 18
First Quarter
Jan 26
Full
Feb 3
Last Quarter

Hourly Weather History & Observations

Time (CST) Temp. Windchill Dew Point Humidity Pressure Visibility Wind Dir Wind Speed Gust Speed Precip Events Conditions
12:55 AM 23.0 °F 18.4 °F 17.8 °F 80% 30.46 in 10.0 mi Variable 3.5 mph - N/A   Clear
1:55 AM 21.6 °F 14.0 °F 17.2 °F 83% 30.46 in 10.0 mi ESE 5.8 mph - N/A   Clear
2:55 AM 17.2 °F 8.9 °F 14.2 °F 88% 30.47 in 10.0 mi ESE 5.8 mph - N/A   Clear
3:55 AM 19.4 °F - 16.9 °F 90% 30.46 in 10.0 mi Calm Calm - N/A   Clear
4:55 AM 14.0 °F 6.5 °F 12.2 °F 93% 30.45 in 10.0 mi East 4.6 mph - N/A   Clear
5:55 AM 14.2 °F 8.4 °F 12.4 °F 93% 30.45 in 10.0 mi ESE 3.5 mph - N/A   Clear
6:55 AM 12.2 °F 6.1 °F 10.4 °F 92% 30.44 in 10.0 mi ESE 3.5 mph - N/A   Clear
7:55 AM 12.2 °F 4.3 °F 10.4 °F 92% 30.45 in 10.0 mi SE 4.6 mph - N/A   Mostly Cloudy
8:55 AM 17.6 °F 9.3 °F 15.8 °F 93% 30.43 in 10.0 mi ESE 5.8 mph - N/A   Mostly Cloudy
9:55 AM 23.0 °F 15.8 °F 19.4 °F 86% 30.40 in 10.0 mi ESE 5.8 mph - N/A   Mostly Cloudy
10:55 AM 28.4 °F 21.2 °F 23.0 °F 80% 30.36 in 10.0 mi East 6.9 mph - N/A   Mostly Cloudy
11:55 AM 32.0 °F 25.6 °F 23.0 °F 69% 30.30 in 10.0 mi ESE 6.9 mph - N/A   Mostly Cloudy
12:55 PM 35.6 °F 30.7 °F 23.0 °F 60% 30.24 in 10.0 mi ESE 5.8 mph - N/A   Mostly Cloudy
1:55 PM 37.4 °F 30.8 °F 23.0 °F 56% 30.20 in 10.0 mi ESE 9.2 mph - N/A   Unknown
2:19 PM 37.4 °F 30.8 °F 23.0 °F 56% 30.20 in 10.0 mi ESE 9.2 mph - N/A   Mostly Cloudy
2:55 PM 35.6 °F 27.5 °F 24.8 °F 65% 30.19 in 10.0 mi East 11.5 mph - N/A   Overcast
3:55 PM 35.6 °F 28.6 °F 26.6 °F 70% 30.18 in 10.0 mi East 9.2 mph - N/A   Overcast
4:55 PM 35.6 °F 27.5 °F 26.6 °F 70% 30.13 in 10.0 mi ESE 11.5 mph - N/A   Overcast
5:02 PM 35.6 °F 27.5 °F 26.6 °F 70% 30.09 in 10.0 mi ESE 11.5 mph - N/A Rain Light Rain
5:55 PM 35.6 °F 28.0 °F 30.2 °F 81% 30.09 in 10.0 mi ESE 10.4 mph - N/A Rain Light Rain
6:12 PM 33.8 °F 26.4 °F 30.2 °F 87% 30.08 in 10.0 mi East 9.2 mph - N/A Rain Light Rain
6:15 PM 33.8 °F 26.4 °F 30.2 °F 87% 30.08 in 9.0 mi ESE 9.2 mph - N/A Rain Light Rain
6:24 PM 33.8 °F 26.4 °F 32.0 °F 93% 30.07 in 6.0 mi East 9.2 mph - N/A Rain Light Rain
6:36 PM 33.8 °F 26.4 °F 32.0 °F 93% 30.06 in 6.0 mi East 9.2 mph - N/A Rain Light Rain
6:44 PM 33.8 °F 25.3 °F 32.0 °F 93% 30.06 in 4.0 mi ESE 11.5 mph - N/A Rain Light Rain
6:55 PM 34.2 °F 25.2 °F 32.2 °F 92% 30.05 in 3.0 mi ESE 12.7 mph - 0.07 in Rain Light Rain
6:59 PM 33.8 °F 24.8 °F 32.0 °F 93% 30.04 in 2.5 mi ESE 12.7 mph - N/A Rain Light Rain
7:05 PM 33.8 °F 24.8 °F 32.0 °F 93% 30.04 in 3.0 mi ESE 12.7 mph - N/A   Overcast
7:15 PM 33.8 °F 25.3 °F 32.0 °F 93% 30.03 in 5.0 mi ESE 11.5 mph - N/A Rain Light Rain
7:19 PM 33.8 °F 24.8 °F 32.0 °F 93% 30.03 in 6.0 mi ESE 12.7 mph - N/A Rain Light Rain
7:21 PM 33.8 °F 25.3 °F 32.0 °F 93% 30.02 in 6.0 mi ESE 11.5 mph - N/A Rain Light Rain
7:30 PM 33.8 °F 24.8 °F 32.0 °F 93% 30.02 in 6.0 mi ESE 12.7 mph - N/A Rain Light Rain
7:55 PM 33.8 °F 23.9 °F 32.0 °F 93% 30.01 in 6.0 mi ESE 15.0 mph - N/A Rain Light Rain
8:55 PM 33.8 °F 24.3 °F 33.8 °F 100% 29.96 in 4.0 mi ESE 13.8 mph - N/A Rain Light Rain
9:55 PM 33.8 °F 24.8 °F 33.8 °F 100% 29.92 in 4.0 mi ESE 12.7 mph - N/A Rain Light Rain
10:55 PM 33.8 °F 25.3 °F 33.8 °F 100% 29.90 in 2.0 mi ESE 11.5 mph - N/A   Light Drizzle
11:55 PM 33.8 °F 25.8 °F 33.8 °F 100% 29.83 in 3.0 mi ESE 10.4 mph - N/A   Light Drizzle